Location: Dittelbrunn
(50.0738°N, 10.2196°E)
Time: 22:01:07
(UTC+00:00)

Cosmos 1269 Rocket - Pass Details

Date: 18 September 2020
Orbit: 772 x 780 km, 74.1° (Epoch: 20 October)

Event Time Altitude Azimuth Distance (km) Brightness Sun altitude
Rises 19:32:44 0° 338° (NNW) 3,275 8.1 -20.4°
Reaches altitude 10° 19:35:10 10° 342° (NNW) 2,343 7.1 -20.7°
Maximum altitude 19:40:25 58° 62° (ENE) 909 4.1 -21.4°
Enters shadow 19:41:31 48° 107° (ESE) 1,013 4.2 -21.6°
